Tracking 19570 objects as of 22-Feb-2019
HD Live streaming from Space Station
objects crossing your sky now

METEOR 2-5 DEB

Track METEOR 2-5 DEB now!
10-day predictions


NORAD ID: 38275
Int'l Code: 1979-095BV
Perigee: 816.1 km
Apogee: 834.4 km
Inclination: 81.2 °
Period: 101.3 minutes
Semi major axis: 7196 km
RCS: 0.0132 m2 (small)
Launch date: October 31, 1979
Source: Commonwealth of Independent States (former USSR) (CIS)
Launch site: PLESETSK MISSILE AND SPACE COMPLEX (PKMTR)

Note: This is SATELLITE DEBRIS
aabbcc
Your satellite tracking list
Your tracking list is empty




NASA's NSSDC Master Catalog

Two Line Element Set (TLE):
1 38275U 79095BV  19052.29048401 +.00000473 +00000-0 +20785-3 0  9999
2 38275 081.1884 265.3649 0012725 144.1008 216.1027 14.22153882291071
Source of the keplerian elements: AFSPC